Flag for U.S.A. Weather past 2 weeks in Cleveland, Ohio, U.S.A.

Now
73 °F

Passing clouds.


Feels Like: 76 °F
Forecast: 67 / 78 °F
Wind: 7 mph from Northeast

Location: Cleveland-Hopkins International Airport

Current Time: Aug 1, 2014 at 10:44:18 PM

Latest Report: Aug 1, 2014 at 9:51 PM


Visibility: 9 mi

Pressure: 30.11 "Hg

Humidity: 66%

Dew point: 61 °F

Location of ClevelandLocation

Historic Weather in Cleveland — Graph

°F

Cleveland temperature yesterday

Maximum temperature yesterday: 77 °F (at 4:51 PM)
Minimum temperature yesterday: 58 °F (at 6:51 AM)
Average temperature yesterday: 68 °F

Past Weeks' High & Low Weather Summary

 TemperatureHumidityPressure
High85 °F (Jul 22, 12:51 PM)97% (Jul 20, 5:59 AM)30.26 "Hg (Jul 20, 5:59 AM)
Low51 °F (Jul 18, 5:51 AM)37% (Jul 18, 12:51 PM)29.61 "Hg (Jul 27, 7:51 PM)
Average68 °F73%30.02 "Hg
* Reported Jul 17 9:51 PM — Aug 1 9:51 PM, Cleveland, Weather by CustomWeather, © 2014

Note: Actual official high and low records may vary slightly from our data, if they occured in-between our weather recording intervals... More about our weather records

Advertising

Cleveland weather history for previous 24 hours

 ConditionsComfort  
Time TempWeatherWind HumidityBarometerVisibility
9:51 PM
Aug 1
73 °FPassing clouds.7 mph66%30.11 "Hg9 mi
8:51 PM74 °FPartly sunny.No wind67%30.09 "Hg8 mi
7:51 PM72 °FOvercast.7 mph66%30.10 "Hg9 mi
6:51 PM80 °FThunderstorms. Mostly cloudy.3 mph54%30.09 "Hg9 mi
5:51 PM79 °FPartly sunny.8 mph56%30.09 "Hg9 mi
4:51 PM80 °FScattered clouds.9 mph56%30.09 "Hg9 mi
3:51 PM80 °FPassing clouds.10 mph56%30.10 "Hg10 mi
2:51 PM81 °FScattered clouds.6 mph54%30.12 "Hg9 mi
1:51 PM81 °FScattered clouds.6 mph49%30.12 "Hg10 mi
12:51 PM79 °FPassing clouds.8 mph52%30.13 "Hg10 mi
11:51 AM78 °FPassing clouds.5 mph58%30.14 "Hg10 mi
10:51 AM76 °FSunny.6 mph62%30.13 "Hg10 mi
9:51 AM72 °FSunny.5 mph68%30.13 "Hg10 mi
8:51 AM68 °FPassing clouds.7 mph73%30.14 "Hg10 mi
7:51 AM67 °FPartly sunny.7 mph73%30.14 "Hg10 mi
6:51 AM62 °FPassing clouds.3 mph83%30.11 "Hg8 mi
5:51 AM63 °FPassing clouds.5 mph81%30.10 "Hg10 mi
4:51 AM64 °FPassing clouds.3 mph81%30.09 "Hg10 mi
3:51 AM65 °FPassing clouds.No wind78%30.09 "Hg10 mi
2:51 AM66 °FPassing clouds.5 mph73%30.09 "Hg10 mi
1:51 AM68 °FPassing clouds.8 mph68%30.09 "Hg10 mi
12:51 AM66 °FPassing clouds.6 mph73%30.09 "Hg10 mi
11:51 PM
Jul 31
68 °FPassing clouds.8 mph68%30.09 "Hg10 mi
10:51 PM70 °FPassing clouds.7 mph66%30.09 "Hg10 mi
Weather by CustomWeather, © 2014

See weather overviewHow to use our weather pages